Regional Weather Roundup
Issued by NWS

Home | Current Version | Previous Version | Text Only | Print | Product List | Glossary Off
Versions: 1 2 3 4 5 6 7 8 9 10 11 12 13 14 15 16 17 18 19 20 21 22 23 24 25 26 27

000
ASUS45 KBOU 191506
RWRCO

WEATHER ROUNDUP FOR COLORADO
NATIONAL WEATHER SERVICE DENVER/BOULDER CO
900 AM MDT SAT APR 19 2014

NOTE: "FAIR" INDICATES FEW OR NO CLOUDS BELOW 12000 FEET WITH NO
SIGNIFICANT WEATHER AND/OR OBSTRUCTIONS TO VISIBILITY.

COZ001>005-013-030-031-191600-
...NORTHWEST COLORADO...

CITY           SKY/WX    TMP DP  RH WIND       PRES   REMARKS
CRAIG          CLOUDY    46  34  62 E6        30.10R
HAYDEN         CLOUDY    46  32  57 E7        30.13S
MEEKER         PTSUNNY   52  36  54 S10       30.10S
MOUNT WERNER   PTSUNNY   37  25  60 W7        30.25S
STEAMBOAT SPGS PTSUNNY   42  30  62 NW3       30.12R
WALDEN         PTSUNNY   41  28  60 S8        30.14R
$$

COZ006>008-011-191600-
...WEST CENTRAL VALLEYS...

CITY           SKY/WX    TMP DP  RH WIND       PRES   REMARKS
GRAND JUNCTION LGT RAIN  50  46  86 N10       30.10R FOG
MONTROSE       LGT RAIN  51  42  71 N9        30.14R
EAGLE          CLOUDY    48  34  57 CALM      30.14R
RIFLE          CLOUDY    54  39  57 CALM      30.10R
DELTA          CLOUDY    56  41  56 W7        30.12R
NUCLA            N/A     46  45  93 NE5       30.17F
$$

COZ017>023-064>068-191600-
...SOUTHWEST COLORADO...

CITY           SKY/WX    TMP DP  RH WIND       PRES   REMARKS
DURANGO        CLOUDY    47  42  83 E5        30.18R
CORTEZ         CLOUDY    48  46  93 E3        30.15R
PAGOSA SPRINGS CLOUDY    44  41  86 CALM      30.22S
TELLURIDE      PTSUNNY   39  37  93 E7        30.20F
WOLF CREEK PAS SNOW      28  28 100 SW16      30.30R VSB<1/4 WCI  17
$$

COZ009-010-012-014-032>034-037-058>063-191600-
...CENTRAL COLORADO...

CITY           SKY/WX    TMP DP  RH WIND       PRES   REMARKS
ASPEN          CLOUDY    45  29  53 CALM      30.16R
BUENA VISTA    PTSUNNY   46  32  59 SE3       30.17F
COPPER MTN     CLOUDY    36  27  69 N3        30.29S
BERTHOUD PASS  CLOUDY    28  19  69 MISG      30.32S
COTTONWOOD PAS PTSUNNY   43  28  56 CALM      30.23S
GUNNISON       PTSUNNY   43  28  56 CALM      30.21R
KREMMLING      CLOUDY    43  28  56 CALM      30.16S
LEADVILLE      CLOUDY    34  26  72 S3        30.21S
MONARCH PASS   MOSUNNY   32  27  80 S7        30.40R WCI  26
SALIDA         PTSUNNY   53  35  50 S13G22    30.22F
SUNLIGHT       LGT RAIN  36  32  87 CALM      30.27R
WILKERSON PASS LGT SNOW  34  27  75 SW3       30.31R
$$

COZ069>075-191600-
...SAN LUIS VALLEY/SANGRE DE CRISTO MOUNTAINS...

CITY           SKY/WX    TMP DP  RH WIND       PRES   REMARKS
ALAMOSA        MOSUNNY   51  34  52 S18G24    30.17R
LA VETA PASS   MOSUNNY   39  30  70 W5G18     30.23S
SAGUACHE       PTSUNNY   48  36  61 SE6       30.20R
$$

COZ035-036-038>040-191600-
...NORTHERN COLORADO FRONT RANGE...

CITY           SKY/WX    TMP DP  RH WIND       PRES   REMARKS
DENVER INTL AP CLOUDY    58  34  40 NE16      30.04R
DMNS CITY PARK   N/A     60  31  33 E3        30.04R
AURORA         PTSUNNY   59  34  38 E7        30.04R
FRONT RANGE AP PTSUNNY   57  36  44 NE15G21   30.05R
ERIE MUNI ARPT CLOUDY    57  33  40 E8        30.04R
BOULDER MUN AP CLOUDY    54  37  54 NE5       30.03R
CENTENNIAL     CLOUDY    58  31  35 S13       30.06R
BROOMFIELD     PTSUNNY   57  34  41 S3        30.06R
FORT COLLINS   CLOUDY    52  37  58 E8        30.06R
LONGMONT       CLOUDY    56  40  53 NE5       30.05R
$$

COZ041-046-047-076>085-087-088-191600-
...PIKES PEAK/PALMER DIVIDE AND SOUTHERN FOOTHILLS...

CITY           SKY/WX    TMP DP  RH WIND       PRES   REMARKS
COLO. SPRINGS  CLOUDY    59  28  30 NE9       30.05R
A. F. ACADEMY  CLOUDY    56  30  36 N18       30.07R
ELLICOTT       NOT AVBL
FALCON         CLOUDY    55  27  33 NE15G21   30.09F
FORT CARSON    CLOUDY    56  32  39 NW5       30.04R
LIMON          CLOUDY    57  34  41 N14G24    30.03R
MONUMENT HILL  CLOUDY    48  32  53 CALM      30.11R
TRINIDAD       PTSUNNY   58  36  43 SW14      30.05S
$$

COZ042>045-048>051-090-091-191600-
...NORTHEAST COLORADO...

CITY           SKY/WX    TMP DP  RH WIND       PRES   REMARKS
GREELEY ARPT   CLOUDY    52  34  50 NE8       30.05R
AKRON          PTSUNNY   53  41  63 NE22      30.00R
BURLINGTON     PTSUNNY   62  38  40 N18       29.95R
WRAY           PTSUNNY   58  45  61 N21       29.96R
STERLING       PTSUNNY   54  41  62 NE17      30.00S
HOLYOKE        PTSUNNY   55  43  62 N22       29.99R
FORT MORGAN    PTSUNNY   51  37  57 NE21G26   30.02R
$$

COZ086-089-092>099-191600-
...SOUTHEAST COLORADO...

CITY           SKY/WX    TMP DP  RH WIND       PRES   REMARKS
PUEBLO         PTSUNNY   58  39  49 NE13      29.99R
LA JUNTA       CLOUDY    61  36  39 NE8       29.98R
LAMAR          CLOUDY    63  40  42 NW8       29.96R
SPRINGFIELD      N/A     59  43  55 SW12      30.00S
$$



USA.gov is the U.S. government's official web portal to all federal, state and local government web resources and services.